Regional Weather Roundup
Issued by NWS Green Bay, WI

Home | Current Version | Previous Version | Graphics & Text | Print | Product List | Glossary Off
Versions: 1 2 3 4 5 6 7 8 9 10 11 12 13 14 15 16 17 18 19 20 21 22 23 24 25 26 27 28 29 30 31 32 33 34 35 36 37 38 39 40 41 42 43 44 45 46 47 48 49 50

000
ASUS43 KGRB 220059
RWRGRB

NORTH-CENTRAL AND NORTHEAST WISCONSIN REGIONAL WEATHER ROUNDUP
NATIONAL WEATHER SERVICE GREEN BAY WI
800 PM CDT SUN SEP 21 2014

WIZ005-009-010>012-018-019-220200-
NORTH CENTRAL WISCONSIN

CITY           SKY/WX    TMP DP  RH WIND       PRES   REMARKS
IRONWOOD       CLEAR     43  43 100 W3        30.13R
MANITOWISH WTR NOT AVBL
ARBOR VITAE    NOT AVBL
EAGLE RIVER    NOT AVBL
LAND O LAKES   NOT AVBL
RHINELANDER    CLEAR     42  37  82 CALM      30.15S
PHILLIPS       NOT AVBL
ANTIGO         NOT AVBL
TOMAHAWK       NOT AVBL
MERRILL        NOT AVBL
$$

WIZ013-073-220200-
NORTHEAST WISCONSIN

CITY           SKY/WX    TMP DP  RH WIND       PRES   REMARKS
IRON MOUNTAIN  CLEAR     43  37  79 NW5       30.11R
MARINETTE      CLEAR     46  37  71 CALM      30.12R
$$

WIZ017-030-035>037-045-220200-
CENTRAL WISCONSIN

CITY           SKY/WX    TMP DP  RH WIND       PRES   REMARKS
MEDFORD        NOT AVBL
WAUSAU         CLEAR     50  38  63 NW7       30.14R
MOSINEE        CLEAR     50  43  76 N9        30.16R
MARSHFIELD     CLEAR     52  42  69 N8        30.15R
WISC RAPIDS    CLEAR     50  44  80 NW5       30.16R
STEVENS POINT  NOT AVBL
WAUPACA        NOT AVBL
SHAWANO        NOT AVBL
CLINTONVILLE   NOT AVBL
$$

WIZ038-039-048-051-220200-
FOX VALLEY

CITY           SKY/WX    TMP DP  RH WIND       PRES   REMARKS
NWS GREEN BAY  CLEAR     49  42  77 N7        30.12R
APPLETON       PTCLDY    50  39  66 N10       30.12R
OSHKOSH        PTCLDY    51  43  74 N8        30.12R
FOND DU LAC    PTCLDY    51  43  74 N5        30.11R
$$

WIZ022-050-052-220200-
EAST CENTRAL WISCONSIN

CITY           SKY/WX    TMP DP  RH WIND       PRES   REMARKS
STURGEON BAY   CLEAR     48  37  66 N14       30.12R
MANITOWOC      NOT AVBL
SHEBOYGAN      CLEAR     48  42  80 N5        30.10R
$$

LMZ563-521-522-541>543-220200-
LAKESHORE

STATION/POSITION TIME  TEMP    WIND        PRES    VSBY  WAVE
                       AIR SEA DIR/SP/G                  HT/PER
                 (UTC) (F)     (DEG/KT/KT) (MB)    (MI)  (FT/S)
SHEBOYGAN LKSHOR 0000   55 51  340/ 11/ 13 1018.9R
KEWAUNEE LKSHORE 0000   50     350/  5/  9 1018.2R
TWO RIVERS CG    0000   52                 1018.8      6   2
NORTHPORT PIER   0000   49     340/ 22/ 30 1019.3R
N MID LAKE BUOY  0000   48 57  340/ 23/ 31 1017.8R         6/ 6
S GREEN BAY BUOY 0000   55     VRB 14/ 17  1020.3R
STURGEON BAY CG  0000   47 52  320/  4     1019.2   3 1/2  1
CHAMBERS ISLAND  0000   50     340/ 20/ 24 1019.0S
MENOMINEE LKSHOR 0000   50     360/ 14/ 17 1020.1R
$$


USA.gov is the U.S. government's official web portal to all federal, state and local government web resources and services.